owner,sensor,date,latitude,longitude,vertical_datum,mass_concentration_of_oxygen_in_sea_water,qcFlag 
DISL,ioos:station:DISL:CATA:1,2008-06-01T00:00:00Z,30.3085,-88.1395,2.271,7.96,1111122 
DISL,ioos:station:DISL:CATA:1,2008-06-01T00:30:00Z,30.3085,-88.1395,2.277,7.59,1111122 
DISL,ioos:station:DISL:CATA:1,2008-06-01T01:00:00Z,30.3085,-88.1395,2.293,7.62,1111122 
DISL,ioos:station:DISL:CATA:1,2008-06-01T01:30:00Z,30.3085,-88.1395,2.304,7.54,1111122 
DISL,ioos:station:DISL:CATA:1,2008-06-01T02:00:00Z,30.3085,-88.1395,2.312,7.31,1111122 
DISL,ioos:station:DISL:CATA:1,2008-06-01T02:30:00Z,30.3085,-88.1395,2.335,7.43,1111122 
DISL,ioos:station:DISL:CATA:1,2008-06-01T03:00:00Z,30.3085,-88.1395,2.356,7.39,1111122 
DISL,ioos:station:DISL:CATA:1,2008-06-01T03:30:00Z,30.3085,-88.1395,2.379,7.32,1111122 
DISL,ioos:station:DISL:CATA:1,2008-06-01T04:00:00Z,30.3085,-88.1395,2.408,6.99,1111122 
DISL,ioos:station:DISL:CATA:1,2008-06-01T04:30:00Z,30.3085,-88.1395,2.428,6.93,1111122 
DISL,ioos:station:DISL:CATA:1,2008-06-01T05:00:00Z,30.3085,-88.1395,2.443,6.73,1111122 
DISL,ioos:station:DISL:CATA:1,2008-06-01T05:30:00Z,30.3085,-88.1395,2.465,6.54,1111122 
DISL,ioos:station:DISL:CATA:1,2008-06-01T06:00:00Z,30.3085,-88.1395,2.485,6.73,1111122 
DISL,ioos:station:DISL:CATA:1,2008-06-01T06:30:00Z,30.3085,-88.1395,2.508,6.82,1111122 
DISL,ioos:station:DISL:CATA:1,2008-06-01T07:00:00Z,30.3085,-88.1395,2.53,6.85,1111122 
DISL,ioos:station:DISL:CATA:1,2008-06-01T07:30:00Z,30.3085,-88.1395,2.544,6.73,1111122 
DISL,ioos:station:DISL:CATA:1,2008-06-01T08:00:00Z,30.3085,-88.1395,2.572,6.63,1111122 
DISL,ioos:station:DISL:CATA:1,2008-06-01T08:30:00Z,30.3085,-88.1395,2.597,6.26,1111122 
DISL,ioos:station:DISL:CATA:1,2008-06-01T09:00:00Z,30.3085,-88.1395,2.618,6.35,1111122 
DISL,ioos:station:DISL:CATA:1,2008-06-01T09:30:00Z,30.3085,-88.1395,2.65,6.62,1111122 
DISL,ioos:station:DISL:CATA:1,2008-06-01T10:00:00Z,30.3085,-88.1395,2.674,6.57,1111122 
DISL,ioos:station:DISL:CATA:1,2008-06-01T10:30:00Z,30.3085,-88.1395,2.693,6.49,1111122 
DISL,ioos:station:DISL:CATA:1,2008-06-01T11:00:00Z,30.3085,-88.1395,2.712,6.49,1111122 
DISL,ioos:station:DISL:CATA:1,2008-06-01T11:30:00Z,30.3085,-88.1395,2.735,6.38,1111122 
DISL,ioos:station:DISL:CATA:1,2008-06-01T12:00:00Z,30.3085,-88.1395,2.747,6.36,1111122 
DISL,ioos:station:DISL:CATA:1,2008-06-01T12:30:00Z,30.3085,-88.1395,2.751,6.27,1111122 
DISL,ioos:station:DISL:CATA:1,2008-06-01T13:00:00Z,30.3085,-88.1395,2.749,6.22,1111122 
DISL,ioos:station:DISL:CATA:1,2008-06-01T13:30:00Z,30.3085,-88.1395,2.757,5.79,1111122 
DISL,ioos:station:DISL:CATA:1,2008-06-01T14:00:00Z,30.3085,-88.1395,2.746,5.61,1111122 
DISL,ioos:station:DISL:CATA:1,2008-06-01T14:30:00Z,30.3085,-88.1395,2.731,5.21,1111122 
DISL,ioos:station:DISL:CATA:1,2008-06-01T15:00:00Z,30.3085,-88.1395,2.722,4.94,1111122 
DISL,ioos:station:DISL:CATA:1,2008-06-01T15:30:00Z,30.3085,-88.1395,2.699,4.33,1111122 
DISL,ioos:station:DISL:CATA:1,2008-06-01T16:00:00Z,30.3085,-88.1395,2.677,4.47,1111122 
DISL,ioos:station:DISL:CATA:1,2008-06-01T16:30:00Z,30.3085,-88.1395,2.643,4.3,1111122 
DISL,ioos:station:DISL:CATA:1,2008-06-01T17:00:00Z,30.3085,-88.1395,2.608,4.21,1111122 
DISL,ioos:station:DISL:CATA:1,2008-06-01T17:30:00Z,30.3085,-88.1395,2.57,5.34,1111122 
DISL,ioos:station:DISL:CATA:1,2008-06-01T18:00:00Z,30.3085,-88.1395,2.523,6.56,1111122 
DISL,ioos:station:DISL:CATA:1,2008-06-01T18:30:00Z,30.3085,-88.1395,2.476,7.02,1111122 
DISL,ioos:station:DISL:CATA:1,2008-06-01T19:00:00Z,30.3085,-88.1395,2.428,7.25,1111122 
DISL,ioos:station:DISL:CATA:1,2008-06-01T19:30:00Z,30.3085,-88.1395,2.378,7.49,1111122 
DISL,ioos:station:DISL:CATA:1,2008-06-01T20:00:00Z,30.3085,-88.1395,2.336,7.43,1111122 
DISL,ioos:station:DISL:CATA:1,2008-06-01T20:30:00Z,30.3085,-88.1395,2.276,7.03,1111122 
DISL,ioos:station:DISL:CATA:1,2008-06-01T21:00:00Z,30.3085,-88.1395,2.249,6.8,1111122 
DISL,ioos:station:DISL:CATA:1,2008-06-01T21:30:00Z,30.3085,-88.1395,2.216,6.63,1111122 
DISL,ioos:station:DISL:CATA:1,2008-06-01T22:00:00Z,30.3085,-88.1395,2.191,6.67,1111122 
DISL,ioos:station:DISL:CATA:1,2008-06-01T22:30:00Z,30.3085,-88.1395,2.17,6.63,1111122 
DISL,ioos:station:DISL:CATA:1,2008-06-01T23:00:00Z,30.3085,-88.1395,2.156,6.5,1111122 
DISL,ioos:station:DISL:CATA:1,2008-06-01T23:30:00Z,30.3085,-88.1395,2.144,5.74,1111122 
DISL,ioos:station:DISL:CATA:1,2008-06-02T00:00:00Z,30.3085,-88.1395,2.127,5.69,1111122 
DISL,ioos:station:DISL:CATA:1,2008-06-02T00:30:00Z,30.3085,-88.1395,2.13,5.58,1111122 
DISL,ioos:station:DISL:CATA:1,2008-06-02T01:00:00Z,30.3085,-88.1395,2.146,5.77,1111122 
DISL,ioos:station:DISL:CATA:1,2008-06-02T01:30:00Z,30.3085,-88.1395,2.153,5.97,1111122 
DISL,ioos:station:DISL:CATA:1,2008-06-02T02:00:00Z,30.3085,-88.1395,2.178,5.85,1111122 
DISL,ioos:station:DISL:CATA:1,2008-06-02T02:30:00Z,30.3085,-88.1395,2.204,5.66,1111122 
DISL,ioos:station:DISL:CATA:1,2008-06-02T03:00:00Z,30.3085,-88.1395,2.23,6.35,1111122 
DISL,ioos:station:DISL:CATA:1,2008-06-02T03:30:00Z,30.3085,-88.1395,2.252,6.13,1111122 
DISL,ioos:station:DISL:CATA:1,2008-06-02T04:00:00Z,30.3085,-88.1395,2.265,5.9,1111122 
DISL,ioos:station:DISL:CATA:1,2008-06-02T04:30:00Z,30.3085,-88.1395,2.277,5.69,1111122 
DISL,ioos:station:DISL:CATA:1,2008-06-02T05:00:00Z,30.3085,-88.1395,2.298,5.73,1111122 
DISL,ioos:station:DISL:CATA:1,2008-06-02T05:30:00Z,30.3085,-88.1395,2.319,5.95,1111122 
DISL,ioos:station:DISL:CATA:1,2008-06-02T06:00:00Z,30.3085,-88.1395,2.339,5.86,1111122 
DISL,ioos:station:DISL:CATA:1,2008-06-02T06:30:00Z,30.3085,-88.1395,2.354,6.38,1111122 
DISL,ioos:station:DISL:CATA:1,2008-06-02T07:00:00Z,30.3085,-88.1395,2.386,6.47,1111122 
DISL,ioos:station:DISL:CATA:1,2008-06-02T07:30:00Z,30.3085,-88.1395,2.422,6.19,1111122 
DISL,ioos:station:DISL:CATA:1,2008-06-02T08:00:00Z,30.3085,-88.1395,2.456,6.44,1111122 
DISL,ioos:station:DISL:CATA:1,2008-06-02T08:30:00Z,30.3085,-88.1395,2.504,6.37,1111122 
DISL,ioos:station:DISL:CATA:1,2008-06-02T09:00:00Z,30.3085,-88.1395,2.567,6.39,1111122 
DISL,ioos:station:DISL:CATA:1,2008-06-02T09:30:00Z,30.3085,-88.1395,2.585,6.37,1111122 
DISL,ioos:station:DISL:CATA:1,2008-06-02T10:00:00Z,30.3085,-88.1395,2.623,6.38,1111122 
DISL,ioos:station:DISL:CATA:1,2008-06-02T10:30:00Z,30.3085,-88.1395,2.655,6.37,1111122 
DISL,ioos:station:DISL:CATA:1,2008-06-02T11:00:00Z,30.3085,-88.1395,2.68,6.31,1111122 
DISL,ioos:station:DISL:CATA:1,2008-06-02T11:30:00Z,30.3085,-88.1395,2.69,6.26,1111122 
DISL,ioos:station:DISL:CATA:1,2008-06-02T12:00:00Z,30.3085,-88.1395,2.706,6.23,1111122 
DISL,ioos:station:DISL:CATA:1,2008-06-02T12:30:00Z,30.3085,-88.1395,2.712,6.1,1111122 
DISL,ioos:station:DISL:CATA:1,2008-06-02T13:00:00Z,30.3085,-88.1395,2.72,6.07,1111122 
DISL,ioos:station:DISL:CATA:1,2008-06-02T13:30:00Z,30.3085,-88.1395,2.731,6.13,1111122 
DISL,ioos:station:DISL:CATA:1,2008-06-02T14:00:00Z,30.3085,-88.1395,2.745,6.12,1111122 
DISL,ioos:station:DISL:CATA:1,2008-06-02T14:30:00Z,30.3085,-88.1395,2.74,6.1,1111122 
DISL,ioos:station:DISL:CATA:1,2008-06-02T15:00:00Z,30.3085,-88.1395,2.738,5.79,1111122 
DISL,ioos:station:DISL:CATA:1,2008-06-02T15:30:00Z,30.3085,-88.1395,2.724,5.81,1111122 
DISL,ioos:station:DISL:CATA:1,2008-06-02T16:00:00Z,30.3085,-88.1395,2.703,5.69,1111122 
DISL,ioos:station:DISL:CATA:1,2008-06-02T16:30:00Z,30.3085,-88.1395,2.685,5.24,1111122 
DISL,ioos:station:DISL:CATA:1,2008-06-02T17:00:00Z,30.3085,-88.1395,2.648,4.8,1111122 
DISL,ioos:station:DISL:CATA:1,2008-06-02T17:30:00Z,30.3085,-88.1395,2.603,4.75,1111122 
DISL,ioos:station:DISL:CATA:1,2008-06-02T18:00:00Z,30.3085,-88.1395,2.556,5.47,1111122 
DISL,ioos:station:DISL:CATA:1,2008-06-02T18:30:00Z,30.3085,-88.1395,2.516,5.73,1111122 
DISL,ioos:station:DISL:CATA:1,2008-06-02T19:00:00Z,30.3085,-88.1395,2.47,6.75,1111122 
DISL,ioos:station:DISL:CATA:1,2008-06-02T19:30:00Z,30.3085,-88.1395,2.411,6.86,1111122 
DISL,ioos:station:DISL:CATA:1,2008-06-02T20:00:00Z,30.3085,-88.1395,2.361,6.8,1111122 
DISL,ioos:station:DISL:CATA:1,2008-06-02T20:30:00Z,30.3085,-88.1395,2.317,6.9,1111122 
DISL,ioos:station:DISL:CATA:1,2008-06-02T21:00:00Z,30.3085,-88.1395,2.274,6.86,1111122 
DISL,ioos:station:DISL:CATA:1,2008-06-02T21:30:00Z,30.3085,-88.1395,2.221,6.79,1111122 
DISL,ioos:station:DISL:CATA:1,2008-06-02T22:00:00Z,30.3085,-88.1395,2.175,6.58,1111122 
DISL,ioos:station:DISL:CATA:1,2008-06-02T22:30:00Z,30.3085,-88.1395,2.138,6.39,1111122 
DISL,ioos:station:DISL:CATA:1,2008-06-02T23:00:00Z,30.3085,-88.1395,2.111,6.15,1111122 
DISL,ioos:station:DISL:CATA:1,2008-06-02T23:30:00Z,30.3085,-88.1395,2.085,5.87,1111122 
DISL,ioos:station:DISL:CATA:1,2008-06-03T00:00:00Z,30.3085,-88.1395,2.053,5.52,1111122 
DISL,ioos:station:DISL:CATA:1,2008-06-03T00:30:00Z,30.3085,-88.1395,2.048,5.29,1111122 
DISL,ioos:station:DISL:CATA:1,2008-06-03T01:00:00Z,30.3085,-88.1395,2.041,5.02,1111122 
DISL,ioos:station:DISL:CATA:1,2008-06-03T01:30:00Z,30.3085,-88.1395,2.037,4.93,1111122 
DISL,ioos:station:DISL:CATA:1,2008-06-03T02:00:00Z,30.3085,-88.1395,2.041,4.84,1111122 
DISL,ioos:station:DISL:CATA:1,2008-06-03T02:30:00Z,30.3085,-88.1395,2.05,5.22,1111122 
DISL,ioos:station:DISL:CATA:1,2008-06-03T03:00:00Z,30.3085,-88.1395,2.068,5.39,1111122 
DISL,ioos:station:DISL:CATA:1,2008-06-03T03:30:00Z,30.3085,-88.1395,2.086,4.19,1111122 
DISL,ioos:station:DISL:CATA:1,2008-06-03T04:00:00Z,30.3085,-88.1395,2.103,5.63,1111122 
DISL,ioos:station:DISL:CATA:1,2008-06-03T04:30:00Z,30.3085,-88.1395,2.129,5.56,1111122 
DISL,ioos:station:DISL:CATA:1,2008-06-03T05:00:00Z,30.3085,-88.1395,2.146,5.49,1111122 
DISL,ioos:station:DISL:CATA:1,2008-06-03T05:30:00Z,30.3085,-88.1395,2.175,5.48,1111122 
DISL,ioos:station:DISL:CATA:1,2008-06-03T06:00:00Z,30.3085,-88.1395,2.203,5.72,1111122 
DISL,ioos:station:DISL:CATA:1,2008-06-03T06:30:00Z,30.3085,-88.1395,2.235,5.84,1111122 
DISL,ioos:station:DISL:CATA:1,2008-06-03T07:00:00Z,30.3085,-88.1395,2.255,5.85,1111122 
DISL,ioos:station:DISL:CATA:1,2008-06-03T07:30:00Z,30.3085,-88.1395,2.28,5.92,1111122 
DISL,ioos:station:DISL:CATA:1,2008-06-03T08:00:00Z,30.3085,-88.1395,2.307,6.0,1111122 
DISL,ioos:station:DISL:CATA:1,2008-06-03T08:30:00Z,30.3085,-88.1395,2.34,5.89,1111122 
DISL,ioos:station:DISL:CATA:1,2008-06-03T09:00:00Z,30.3085,-88.1395,2.375,5.7,1111122 
DISL,ioos:station:DISL:CATA:1,2008-06-03T09:30:00Z,30.3085,-88.1395,2.412,5.79,1111122 
DISL,ioos:station:DISL:CATA:1,2008-06-03T10:00:00Z,30.3085,-88.1395,2.458,5.74,1111122 
DISL,ioos:station:DISL:CATA:1,2008-06-03T10:30:00Z,30.3085,-88.1395,2.501,5.83,1111122 
DISL,ioos:station:DISL:CATA:1,2008-06-03T11:00:00Z,30.3085,-88.1395,2.545,5.78,1111122 
DISL,ioos:station:DISL:CATA:1,2008-06-03T11:30:00Z,30.3085,-88.1395,2.59,5.83,1111122 
DISL,ioos:station:DISL:CATA:1,2008-06-03T12:00:00Z,30.3085,-88.1395,2.636,5.92,1111122 
DISL,ioos:station:DISL:CATA:1,2008-06-03T12:30:00Z,30.3085,-88.1395,2.677,5.88,1111122 
DISL,ioos:station:DISL:CATA:1,2008-06-03T13:00:00Z,30.3085,-88.1395,2.705,5.84,1111122 
DISL,ioos:station:DISL:CATA:1,2008-06-03T13:30:00Z,30.3085,-88.1395,2.733,5.82,1111122 
DISL,ioos:station:DISL:CATA:1,2008-06-03T14:00:00Z,30.3085,-88.1395,2.746,5.78,1111122 
DISL,ioos:station:DISL:CATA:1,2008-06-03T14:30:00Z,30.3085,-88.1395,2.751,5.81,1111122 
DISL,ioos:station:DISL:CATA:1,2008-06-03T15:00:00Z,30.3085,-88.1395,2.754,5.82,1111122 
DISL,ioos:station:DISL:CATA:1,2008-06-03T15:30:00Z,30.3085,-88.1395,2.76,5.87,1111122 
DISL,ioos:station:DISL:CATA:1,2008-06-03T16:00:00Z,30.3085,-88.1395,2.753,5.93,1111122 
DISL,ioos:station:DISL:CATA:1,2008-06-03T16:30:00Z,30.3085,-88.1395,2.722,5.87,1111122 
DISL,ioos:station:DISL:CATA:1,2008-06-03T17:00:00Z,30.3085,-88.1395,2.702,5.13,1111122 
DISL,ioos:station:DISL:CATA:1,2008-06-03T17:30:00Z,30.3085,-88.1395,2.673,4.34,1111122 
DISL,ioos:station:DISL:CATA:1,2008-06-03T18:00:00Z,30.3085,-88.1395,2.637,4.74,1111122 
DISL,ioos:station:DISL:CATA:1,2008-06-03T18:30:00Z,30.3085,-88.1395,2.594,5.27,1111122 
DISL,ioos:station:DISL:CATA:1,2008-06-03T19:00:00Z,30.3085,-88.1395,2.551,5.33,1111122 
DISL,ioos:station:DISL:CATA:1,2008-06-03T19:30:00Z,30.3085,-88.1395,2.504,5.48,1111122 
DISL,ioos:station:DISL:CATA:1,2008-06-03T20:00:00Z,30.3085,-88.1395,2.454,4.96,1111122 
DISL,ioos:station:DISL:CATA:1,2008-06-03T20:30:00Z,30.3085,-88.1395,2.399,5.08,1111122 
DISL,ioos:station:DISL:CATA:1,2008-06-03T21:00:00Z,30.3085,-88.1395,2.344,5.75,1111122 
DISL,ioos:station:DISL:CATA:1,2008-06-03T21:30:00Z,30.3085,-88.1395,2.301,5.33,1111122 
DISL,ioos:station:DISL:CATA:1,2008-06-03T22:00:00Z,30.3085,-88.1395,2.256,4.02,1111122 
DISL,ioos:station:DISL:CATA:1,2008-06-03T22:30:00Z,30.3085,-88.1395,2.214,3.38,1111122 
DISL,ioos:station:DISL:CATA:1,2008-06-03T23:00:00Z,30.3085,-88.1395,2.175,3.3,1111122 
DISL,ioos:station:DISL:CATA:1,2008-06-03T23:30:00Z,30.3085,-88.1395,2.143,3.33,1111122 
DISL,ioos:station:DISL:CATA:1,2008-06-04T00:00:00Z,30.3085,-88.1395,2.113,3.34,1111122 
DISL,ioos:station:DISL:CATA:1,2008-06-04T00:30:00Z,30.3085,-88.1395,2.087,3.38,1111122 
DISL,ioos:station:DISL:CATA:1,2008-06-04T01:00:00Z,30.3085,-88.1395,2.062,3.66,1111122 
DISL,ioos:station:DISL:CATA:1,2008-06-04T01:30:00Z,30.3085,-88.1395,2.049,4.76,1111122 
DISL,ioos:station:DISL:CATA:1,2008-06-04T02:00:00Z,30.3085,-88.1395,2.036,4.81,1111122 
DISL,ioos:station:DISL:CATA:1,2008-06-04T02:30:00Z,30.3085,-88.1395,2.021,5.19,1111122 
DISL,ioos:station:DISL:CATA:1,2008-06-04T03:00:00Z,30.3085,-88.1395,2.013,5.15,1111122 
DISL,ioos:station:DISL:CATA:1,2008-06-04T03:30:00Z,30.3085,-88.1395,2.026,4.9,1111122 
DISL,ioos:station:DISL:CATA:1,2008-06-04T04:00:00Z,30.3085,-88.1395,2.044,5.29,1111122 
DISL,ioos:station:DISL:CATA:1,2008-06-04T04:30:00Z,30.3085,-88.1395,2.085,5.05,1111122 
DISL,ioos:station:DISL:CATA:1,2008-06-04T05:00:00Z,30.3085,-88.1395,2.086,5.79,1111122 
DISL,ioos:station:DISL:CATA:1,2008-06-04T05:30:00Z,30.3085,-88.1395,2.111,5.79,1111122 
DISL,ioos:station:DISL:CATA:1,2008-06-04T06:00:00Z,30.3085,-88.1395,2.131,5.52,1111122 
DISL,ioos:station:DISL:CATA:1,2008-06-04T06:30:00Z,30.3085,-88.1395,2.149,5.05,1111122 
DISL,ioos:station:DISL:CATA:1,2008-06-04T07:00:00Z,30.3085,-88.1395,2.179,4.96,1111122 
DISL,ioos:station:DISL:CATA:1,2008-06-04T07:30:00Z,30.3085,-88.1395,2.226,4.81,1111122 
DISL,ioos:station:DISL:CATA:1,2008-06-04T08:00:00Z,30.3085,-88.1395,2.238,4.7,1111122 
DISL,ioos:station:DISL:CATA:1,2008-06-04T08:30:00Z,30.3085,-88.1395,2.286,4.99,1111122 
DISL,ioos:station:DISL:CATA:1,2008-06-04T09:00:00Z,30.3085,-88.1395,2.335,5.46,1111122 
DISL,ioos:station:DISL:CATA:1,2008-06-04T09:30:00Z,30.3085,-88.1395,2.377,5.76,1111122 
DISL,ioos:station:DISL:CATA:1,2008-06-04T10:00:00Z,30.3085,-88.1395,2.418,5.76,1111122 
DISL,ioos:station:DISL:CATA:1,2008-06-04T10:30:00Z,30.3085,-88.1395,2.443,5.83,1111122 
DISL,ioos:station:DISL:CATA:1,2008-06-04T11:00:00Z,30.3085,-88.1395,2.492,5.8,1111122 
DISL,ioos:station:DISL:CATA:1,2008-06-04T11:30:00Z,30.3085,-88.1395,2.532,5.79,1111122 
DISL,ioos:station:DISL:CATA:1,2008-06-04T12:00:00Z,30.3085,-88.1395,2.569,5.76,1111122 
DISL,ioos:station:DISL:CATA:1,2008-06-04T12:30:00Z,30.3085,-88.1395,2.612,5.77,1111122 
DISL,ioos:station:DISL:CATA:1,2008-06-04T13:00:00Z,30.3085,-88.1395,2.659,5.79,1111122 
DISL,ioos:station:DISL:CATA:1,2008-06-04T13:30:00Z,30.3085,-88.1395,2.703,5.81,1111122 
DISL,ioos:station:DISL:CATA:1,2008-06-04T14:00:00Z,30.3085,-88.1395,2.724,5.81,1111122 
DISL,ioos:station:DISL:CATA:1,2008-06-04T14:30:00Z,30.3085,-88.1395,2.748,5.85,1111122 
DISL,ioos:station:DISL:CATA:1,2008-06-04T15:00:00Z,30.3085,-88.1395,2.768,5.89,1111122 
DISL,ioos:station:DISL:CATA:1,2008-06-04T15:30:00Z,30.3085,-88.1395,2.783,5.93,1111122 
DISL,ioos:station:DISL:CATA:1,2008-06-04T16:00:00Z,30.3085,-88.1395,2.782,5.96,1111122 
DISL,ioos:station:DISL:CATA:1,2008-06-04T16:30:00Z,30.3085,-88.1395,2.777,6.01,1111122 
DISL,ioos:station:DISL:CATA:1,2008-06-04T17:00:00Z,30.3085,-88.1395,2.768,6.01,1111122 
DISL,ioos:station:DISL:CATA:1,2008-06-04T17:30:00Z,30.3085,-88.1395,2.763,6.0,1111122 
DISL,ioos:station:DISL:CATA:1,2008-06-04T18:00:00Z,30.3085,-88.1395,2.734,5.95,1111122 
DISL,ioos:station:DISL:CATA:1,2008-06-04T18:30:00Z,30.3085,-88.1395,2.722,5.91,1111122 
DISL,ioos:station:DISL:CATA:1,2008-06-04T19:00:00Z,30.3085,-88.1395,2.68,5.72,1111122 
DISL,ioos:station:DISL:CATA:1,2008-06-04T19:30:00Z,30.3085,-88.1395,2.639,5.42,1111122 
DISL,ioos:station:DISL:CATA:1,2008-06-04T20:00:00Z,30.3085,-88.1395,2.601,5.79,1111122 
DISL,ioos:station:DISL:CATA:1,2008-06-04T20:30:00Z,30.3085,-88.1395,2.561,5.51,1111122 
DISL,ioos:station:DISL:CATA:1,2008-06-04T21:00:00Z,30.3085,-88.1395,2.512,5.24,1111122 
DISL,ioos:station:DISL:CATA:1,2008-06-04T21:30:00Z,30.3085,-88.1395,2.46,5.55,1111122 
DISL,ioos:station:DISL:CATA:1,2008-06-04T22:00:00Z,30.3085,-88.1395,2.404,5.88,1111122 
DISL,ioos:station:DISL:CATA:1,2008-06-04T22:30:00Z,30.3085,-88.1395,2.358,6.16,1111122 
DISL,ioos:station:DISL:CATA:1,2008-06-04T23:00:00Z,30.3085,-88.1395,2.315,6.29,1111122 
DISL,ioos:station:DISL:CATA:1,2008-06-04T23:30:00Z,30.3085,-88.1395,2.271,5.93,1111122 
DISL,ioos:station:DISL:CATA:1,2008-06-05T00:00:00Z,30.3085,-88.1395,2.23,5.73,1111122 
DISL,ioos:station:DISL:CATA:1,2008-06-05T00:30:00Z,30.3085,-88.1395,2.201,5.64,1111122 
DISL,ioos:station:DISL:CATA:1,2008-06-05T01:00:00Z,30.3085,-88.1395,2.167,5.95,1111122 
DISL,ioos:station:DISL:CATA:1,2008-06-05T01:30:00Z,30.3085,-88.1395,2.138,6.09,1111122 
DISL,ioos:station:DISL:CATA:1,2008-06-05T02:00:00Z,30.3085,-88.1395,2.116,5.85,1111122 
DISL,ioos:station:DISL:CATA:1,2008-06-05T02:30:00Z,30.3085,-88.1395,2.091,5.94,1111122 
DISL,ioos:station:DISL:CATA:1,2008-06-05T03:00:00Z,30.3085,-88.1395,2.081,6.14,1111122 
DISL,ioos:station:DISL:CATA:1,2008-06-05T03:30:00Z,30.3085,-88.1395,2.069,6.21,1111122 
DISL,ioos:station:DISL:CATA:1,2008-06-05T04:00:00Z,30.3085,-88.1395,2.06,6.26,1111122 
DISL,ioos:station:DISL:CATA:1,2008-06-05T04:30:00Z,30.3085,-88.1395,2.066,6.35,1111122 
DISL,ioos:station:DISL:CATA:1,2008-06-05T05:00:00Z,30.3085,-88.1395,2.075,6.38,1111122 
DISL,ioos:station:DISL:CATA:1,2008-06-05T05:30:00Z,30.3085,-88.1395,2.095,6.26,1111122 
DISL,ioos:station:DISL:CATA:1,2008-06-05T06:00:00Z,30.3085,-88.1395,2.123,5.8,1111122 
DISL,ioos:station:DISL:CATA:1,2008-06-05T06:30:00Z,30.3085,-88.1395,2.151,5.74,1111122 
DISL,ioos:station:DISL:CATA:1,2008-06-05T07:00:00Z,30.3085,-88.1395,2.167,5.6,1111122 
DISL,ioos:station:DISL:CATA:1,2008-06-05T07:30:00Z,30.3085,-88.1395,2.188,5.84,1111122 
DISL,ioos:station:DISL:CATA:1,2008-06-05T08:00:00Z,30.3085,-88.1395,2.226,5.93,1111122 
DISL,ioos:station:DISL:CATA:1,2008-06-05T08:30:00Z,30.3085,-88.1395,2.26,5.92,1111122 
DISL,ioos:station:DISL:CATA:1,2008-06-05T09:00:00Z,30.3085,-88.1395,2.296,5.92,1111122 
DISL,ioos:station:DISL:CATA:1,2008-06-05T09:30:00Z,30.3085,-88.1395,2.336,5.88,1111122 
DISL,ioos:station:DISL:CATA:1,2008-06-05T10:00:00Z,30.3085,-88.1395,2.382,5.87,1111122 
DISL,ioos:station:DISL:CATA:1,2008-06-05T10:30:00Z,30.3085,-88.1395,2.418,5.76,1111122 
DISL,ioos:station:DISL:CATA:1,2008-06-05T11:00:00Z,30.3085,-88.1395,2.471,5.79,1111122 
DISL,ioos:station:DISL:CATA:1,2008-06-05T11:30:00Z,30.3085,-88.1395,2.512,5.83,1111122 
DISL,ioos:station:DISL:CATA:1,2008-06-05T12:30:00Z,30.3085,-88.1395,2.561,5.69,1111122 
DISL,ioos:station:DISL:CATA:1,2008-06-05T12:30:00Z,30.3085,-88.1395,2.604,5.74,1111122 
DISL,ioos:station:DISL:CATA:1,2008-06-05T13:00:00Z,30.3085,-88.1395,2.647,5.89,1111122 
DISL,ioos:station:DISL:CATA:1,2008-06-05T13:30:00Z,30.3085,-88.1395,2.692,5.95,1111122 
DISL,ioos:station:DISL:CATA:1,2008-06-05T14:00:00Z,30.3085,-88.1395,2.725,5.96,1111122 
DISL,ioos:station:DISL:CATA:1,2008-06-05T14:30:00Z,30.3085,-88.1395,2.755,6.0,1111122 
DISL,ioos:station:DISL:CATA:1,2008-06-05T15:00:00Z,30.3085,-88.1395,2.788,5.95,1111122 
DISL,ioos:station:DISL:CATA:1,2008-06-05T15:30:00Z,30.3085,-88.1395,2.811,5.96,1111122 
DISL,ioos:station:DISL:CATA:1,2008-06-05T16:00:00Z,30.3085,-88.1395,2.826,5.97,1111122 
DISL,ioos:station:DISL:CATA:1,2008-06-05T16:30:00Z,30.3085,-88.1395,2.839,6.03,1111122 
DISL,ioos:station:DISL:CATA:1,2008-06-05T17:00:00Z,30.3085,-88.1395,2.83,6.09,1111122 
DISL,ioos:station:DISL:CATA:1,2008-06-05T17:30:00Z,30.3085,-88.1395,2.831,6.09,1111122 
DISL,ioos:station:DISL:CATA:1,2008-06-05T18:00:00Z,30.3085,-88.1395,2.814,6.12,1111122 
DISL,ioos:station:DISL:CATA:1,2008-06-05T18:30:00Z,30.3085,-88.1395,2.797,5.97,1111122 
DISL,ioos:station:DISL:CATA:1,2008-06-05T19:00:00Z,30.3085,-88.1395,2.787,5.48,1111122 
DISL,ioos:station:DISL:CATA:1,2008-06-05T19:30:00Z,30.3085,-88.1395,2.747,5.69,1111122 
DISL,ioos:station:DISL:CATA:1,2008-06-05T20:00:00Z,30.3085,-88.1395,2.706,5.7,1111122 
DISL,ioos:station:DISL:CATA:1,2008-06-05T20:30:00Z,30.3085,-88.1395,2.664,5.18,1111122 
DISL,ioos:station:DISL:CATA:1,2008-06-05T21:00:00Z,30.3085,-88.1395,2.627,5.39,1111122 
DISL,ioos:station:DISL:CATA:1,2008-06-05T21:30:00Z,30.3085,-88.1395,2.579,6.22,1111122 
DISL,ioos:station:DISL:CATA:1,2008-06-05T22:00:00Z,30.3085,-88.1395,2.529,6.46,1111122 
DISL,ioos:station:DISL:CATA:1,2008-06-05T22:30:00Z,30.3085,-88.1395,2.481,7.23,1111122 
DISL,ioos:station:DISL:CATA:1,2008-06-05T23:00:00Z,30.3085,-88.1395,2.435,6.82,1111122 
DISL,ioos:station:DISL:CATA:1,2008-06-05T23:30:00Z,30.3085,-88.1395,2.388,6.81,1111122 
DISL,ioos:station:DISL:CATA:1,2008-06-06T00:00:00Z,30.3085,-88.1395,2.341,6.91,1111122 
DISL,ioos:station:DISL:CATA:1,2008-06-06T00:30:00Z,30.3085,-88.1395,2.3,7.11,1111122 
DISL,ioos:station:DISL:CATA:1,2008-06-06T01:00:00Z,30.3085,-88.1395,2.259,7.05,1111122 
DISL,ioos:station:DISL:CATA:1,2008-06-06T01:30:00Z,30.3085,-88.1395,2.225,6.86,1111122 
DISL,ioos:station:DISL:CATA:1,2008-06-06T02:00:00Z,30.3085,-88.1395,2.2,6.72,1111122 
DISL,ioos:station:DISL:CATA:1,2008-06-06T02:30:00Z,30.3085,-88.1395,2.176,6.61,1111122 
DISL,ioos:station:DISL:CATA:1,2008-06-06T03:00:00Z,30.3085,-88.1395,2.154,6.51,1111122 
DISL,ioos:station:DISL:CATA:1,2008-06-06T03:30:00Z,30.3085,-88.1395,2.142,6.46,1111122 
DISL,ioos:station:DISL:CATA:1,2008-06-06T04:00:00Z,30.3085,-88.1395,2.133,6.38,1111122 
DISL,ioos:station:DISL:CATA:1,2008-06-06T04:30:00Z,30.3085,-88.1395,2.13,6.28,1111122 
DISL,ioos:station:DISL:CATA:1,2008-06-06T05:00:00Z,30.3085,-88.1395,2.135,6.32,1111122 
DISL,ioos:station:DISL:CATA:1,2008-06-06T05:30:00Z,30.3085,-88.1395,2.134,6.25,1111122 
DISL,ioos:station:DISL:CATA:1,2008-06-06T06:00:00Z,30.3085,-88.1395,2.137,6.25,1111122 
DISL,ioos:station:DISL:CATA:1,2008-06-06T06:30:00Z,30.3085,-88.1395,2.154,6.27,1111122 
DISL,ioos:station:DISL:CATA:1,2008-06-06T07:30:00Z,30.3085,-88.1395,2.179,6.07,1111122 
DISL,ioos:station:DISL:CATA:1,2008-06-06T07:30:00Z,30.3085,-88.1395,2.221,5.61,1111122 
DISL,ioos:station:DISL:CATA:1,2008-06-06T08:00:00Z,30.3085,-88.1395,2.242,5.66,1111122 
DISL,ioos:station:DISL:CATA:1,2008-06-06T08:30:00Z,30.3085,-88.1395,2.267,5.78,1111122 
DISL,ioos:station:DISL:CATA:1,2008-06-06T09:30:00Z,30.3085,-88.1395,2.294,5.81,1111122 
DISL,ioos:station:DISL:CATA:1,2008-06-06T09:30:00Z,30.3085,-88.1395,2.322,5.9,1111122 
DISL,ioos:station:DISL:CATA:1,2008-06-06T10:00:00Z,30.3085,-88.1395,2.351,6.1,1111122 
DISL,ioos:station:DISL:CATA:1,2008-06-06T10:30:00Z,30.3085,-88.1395,2.391,6.02,1111122 
DISL,ioos:station:DISL:CATA:1,2008-06-06T11:00:00Z,30.3085,-88.1395,2.429,6.06,1111122 
DISL,ioos:station:DISL:CATA:1,2008-06-06T11:30:00Z,30.3085,-88.1395,2.476,6.01,1111122 
DISL,ioos:station:DISL:CATA:1,2008-06-06T12:00:00Z,30.3085,-88.1395,2.52,5.98,1111122 
DISL,ioos:station:DISL:CATA:1,2008-06-06T12:30:00Z,30.3085,-88.1395,2.571,6.01,1111122 
DISL,ioos:station:DISL:CATA:1,2008-06-06T13:00:00Z,30.3085,-88.1395,2.613,5.98,1111122 
DISL,ioos:station:DISL:CATA:1,2008-06-06T13:30:00Z,30.3085,-88.1395,2.645,6.1,1111122 
DISL,ioos:station:DISL:CATA:1,2008-06-06T14:00:00Z,30.3085,-88.1395,2.669,6.27,1111122 
DISL,ioos:station:DISL:CATA:1,2008-06-06T14:30:00Z,30.3085,-88.1395,2.71,6.27,1111122 
DISL,ioos:station:DISL:CATA:1,2008-06-06T15:00:00Z,30.3085,-88.1395,2.749,6.37,1111122 
DISL,ioos:station:DISL:CATA:1,2008-06-06T15:30:00Z,30.3085,-88.1395,2.782,6.44,1111122 